When you browse on this site, cookies collect data to enhance your experience and personalize the content and advertising you see.
Visit our Privacy Policy to learn more. By continuing to use the site, you agree to this use of cookies and data.
  • In Latvia
  • List of Countries
  • For 7 days
  • Water Temperature
  • Weather Map
  • Weather Widgets
  • user-avatar
    Login

    Hourly Weather Baden

    Today, 16 September, Monday

    Time Temperature Precipitation Wind Pressure Humidity
    00:00 +16°C° 0 mm 0 mps 728 mmHg 88%
    01:00 +16°C° 0 mm 0 mps 728 mmHg 90%
    02:00 +16°C° 0 mm 0 mps 728 mmHg 91%
    03:00 +16°C° 0 mm 0 mps 727 mmHg 91%
    04:00 +15°C° 0 mm 0 mps 727 mmHg 92%
    05:00 +15°C° 0 mm 0 mps 727 mmHg 92%
    06:00 +16°C° 0 mm 0 mps 727 mmHg 91%
    07:00 +16°C° 0 mm 0 mps 727 mmHg 91%
    08:00 +18°C° 0 mm 0 mps 727 mmHg 83%
    09:00 +21°C° 0 mm 0 mps 727 mmHg 75%
    10:00 +25°C° 0 mm 1 mps 727 mmHg 67%
    11:00 +26°C° 0 mm 1 mps 727 mmHg 61%
    12:00 +28°C° 0 mm 1 mps 727 mmHg 55%
    13:00 +29°C° 0 mm 2 mps 727 mmHg 49%
    14:00 +29°C° 0 mm 2 mps 726 mmHg 50%
    15:00 +28°C° 0 mm 2 mps 726 mmHg 51%
    16:00 +28°C° 0 mm 2 mps 726 mmHg 52%
    17:00 +26°C° 0.1 mm 2 mps 726 mmHg 62%
    18:00 +23°C° 0.1 mm 1 mps 725 mmHg 73%
    19:00 +21°C° 0.1 mm 1 mps 725 mmHg 83%
    20:00 +20°C° 0 mm 1 mps 725 mmHg 85%
    21:00 +19°C° 0 mm 1 mps 726 mmHg 88%
    22:00 +16°C° 0 mm 0 mps 726 mmHg 90%
    23:00 +16°C° 0 mm 0 mps 726 mmHg 90%

    Tomorrow, 17 September, Tuesday

    Time Temperature Precipitation Wind Pressure Humidity
    00:00 +15°C° 0 mm 0 mps 725 mmHg 91%
    01:00 +15°C° 0 mm 0 mps 725 mmHg 91%
    02:00 +15°C° 0 mm 0 mps 725 mmHg 91%
    03:00 +14°C° 0 mm 0 mps 725 mmHg 92%
    04:00 +14°C° 0 mm 0 mps 724 mmHg 92%
    05:00 +14°C° 0 mm 0 mps 725 mmHg 91%
    06:00 +14°C° 0 mm 0 mps 725 mmHg 91%
    07:00 +14°C° 0 mm 0 mps 725 mmHg 90%
    08:00 +16°C° 0 mm 0 mps 725 mmHg 82%
    09:00 +19°C° 0 mm 0 mps 725 mmHg 73%
    10:00 +21°C° 0 mm 0 mps 726 mmHg 65%
    11:00 +24°C° 0 mm 1 mps 725 mmHg 58%
    12:00 +25°C° 0 mm 1 mps 725 mmHg 51%
    13:00 +26°C° 0 mm 1 mps 725 mmHg 44%
    14:00 +25°C° 0 mm 2 mps 725 mmHg 48%
    15:00 +25°C° 0 mm 2 mps 725 mmHg 52%
    16:00 +24°C° 0 mm 2 mps 724 mmHg 56%
    17:00 +21°C° 0 mm 2 mps 724 mmHg 65%
    18:00 +20°C° 0 mm 1 mps 725 mmHg 75%
    19:00 +18°C° 0 mm 1 mps 725 mmHg 85%
    20:00 +18°C° 0 mm 1 mps 725 mmHg 83%
    21:00 +17°C° 0 mm 2 mps 726 mmHg 81%
    22:00 +16°C° 0 mm 2 mps 726 mmHg 79%
    23:00 +15°C° 0 mm 2 mps 726 mmHg 76%

    Day after tomorrow, 18 September, Wednesday

    Time Temperature Precipitation Wind Pressure Humidity
    00:00 +13°C° 0 mm 3 mps 726 mmHg 73%
    01:00 +12°C° 0 mm 3 mps 726 mmHg 70%
    02:00 +11°C° 0 mm 3 mps 726 mmHg 73%
    03:00 +11°C° 0 mm 3 mps 726 mmHg 75%
    04:00 +10°C° 0 mm 3 mps 726 mmHg 78%
    05:00 +9°C° 0 mm 3 mps 726 mmHg 79%
    06:00 +9°C° 0 mm 3 mps 726 mmHg 80%
    07:00 +8°C° 0 mm 3 mps 726 mmHg 81%
    08:00 +10°C° 0 mm 3 mps 726 mmHg 75%
    09:00 +12°C° 0 mm 3 mps 726 mmHg 69%
    10:00 +13°C° 0 mm 3 mps 726 mmHg 63%
    11:00 +15°C° 0 mm 4 mps 726 mmHg 59%
    12:00 +17°C° 0 mm 4 mps 726 mmHg 55%
    13:00 +18°C° 0 mm 4 mps 726 mmHg 50%
    14:00 +18°C° 0 mm 4 mps 726 mmHg 50%
    15:00 +18°C° 0 mm 4 mps 726 mmHg 50%
    16:00 +18°C° 0 mm 4 mps 726 mmHg 50%
    17:00 +15°C° 0 mm 4 mps 726 mmHg 55%
    18:00 +13°C° 0 mm 3 mps 726 mmHg 61%
    19:00 +11°C° 0 mm 3 mps 726 mmHg 66%
    20:00 +10°C° 0 mm 2 mps 727 mmHg 69%
    21:00 +9°C° 0 mm 2 mps 727 mmHg 73%
    22:00 +8°C° 0 mm 2 mps 727 mmHg 76%
    23:00 +8°C° 0 mm 2 mps 727 mmHg 77%

    19 September, Thursday

    Time Temperature Precipitation Wind Pressure Humidity
    00:00 +7°C° 0 mm 2 mps 727 mmHg 78%
    01:00 +7°C° 0 mm 1 mps 727 mmHg 79%
    02:00 +7°C° 0 mm 1 mps 727 mmHg 81%
    03:00 +7°C° 0 mm 1 mps 727 mmHg 82%
    04:00 +6°C° 0 mm 1 mps 727 mmHg 83%
    05:00 +6°C° 0 mm 1 mps 727 mmHg 83%
    06:00 +6°C° 0 mm 1 mps 727 mmHg 83%
    07:00 +7°C° 0 mm 1 mps 727 mmHg 82%
    08:00 +8°C° 0 mm 2 mps 728 mmHg 73%
    09:00 +10°C° 0 mm 3 mps 728 mmHg 64%
    10:00 +13°C° 0 mm 4 mps 728 mmHg 55%
    11:00 +14°C° 0 mm 4 mps 728 mmHg 52%
    12:00 +15°C° 0 mm 4 mps 728 mmHg 49%
    13:00 +16°C° 0 mm 5 mps 728 mmHg 46%
    14:00 +16°C° 0 mm 5 mps 728 mmHg 48%
    15:00 +16°C° 0 mm 5 mps 728 mmHg 49%
    16:00 +16°C° 0 mm 5 mps 728 mmHg 51%
    17:00 +14°C° 0 mm 4 mps 728 mmHg 59%
    18:00 +12°C° 0 mm 4 mps 728 mmHg 67%
    19:00 +11°C° 0 mm 3 mps 728 mmHg 75%
    20:00 +10°C° 0 mm 3 mps 729 mmHg 79%
    21:00 +9°C° 0 mm 3 mps 729 mmHg 82%
    22:00 +8°C° 0 mm 2 mps 729 mmHg 85%
    23:00 +8°C° 0 mm 2 mps 729 mmHg 85%

    20 September, Friday

    Time Temperature Precipitation Wind Pressure Humidity
    00:00 +7°C° 0 mm 2 mps 729 mmHg 85%
    01:00 +7°C° 0 mm 2 mps 729 mmHg 85%
    02:00 +6°C° 0 mm 2 mps 728 mmHg 85%
    03:00 +5°C° 0 mm 2 mps 728 mmHg 85%
    04:00 +6°C° 0 mm 1 mps 728 mmHg 85%
    05:00 +6°C° 0 mm 1 mps 728 mmHg 84%
    06:00 +6°C° 0 mm 1 mps 728 mmHg 83%
    07:00 +6°C° 0 mm 1 mps 728 mmHg 82%
    08:00 +8°C° 0 mm 1 mps 728 mmHg 74%
    09:00 +10°C° 0 mm 2 mps 728 mmHg 67%
    10:00 +13°C° 0 mm 2 mps 728 mmHg 59%
    11:00 +15°C° 0 mm 2 mps 728 mmHg 56%
    12:00 +16°C° 0 mm 3 mps 728 mmHg 53%
    13:00 +18°C° 0 mm 3 mps 728 mmHg 49%
    14:00 +18°C° 0 mm 3 mps 727 mmHg 50%
    15:00 +18°C° 0 mm 3 mps 727 mmHg 51%
    16:00 +19°C° 0 mm 3 mps 727 mmHg 51%
    17:00 +16°C° 0 mm 3 mps 727 mmHg 59%
    18:00 +14°C° 0 mm 2 mps 727 mmHg 67%
    19:00 +12°C° 0 mm 2 mps 726 mmHg 75%
    20:00 +10°C° 0 mm 2 mps 727 mmHg 78%
    21:00 +10°C° 0 mm 1 mps 727 mmHg 81%
    22:00 +9°C° 0 mm 1 mps 727 mmHg 84%
    23:00 +8°C° 0 mm 1 mps 727 mmHg 85%

    21 September, Saturday

    Time Temperature Precipitation Wind Pressure Humidity
    00:00 +8°C° 0 mm 1 mps 726 mmHg 86%
    01:00 +7°C° 0 mm 1 mps 726 mmHg 87%
    02:00 +6°C° 0 mm 0 mps 726 mmHg 88%
    03:00 +6°C° 0 mm 0 mps 726 mmHg 89%
    04:00 +6°C° 0 mm 0 mps 726 mmHg 89%
    05:00 +6°C° 0 mm 0 mps 726 mmHg 88%
    06:00 +7°C° 0 mm 0 mps 726 mmHg 87%
    07:00 +7°C° 0 mm 0 mps 726 mmHg 86%
    08:00 +10°C° 0 mm 0 mps 726 mmHg 77%
    09:00 +14°C° 0 mm 1 mps 726 mmHg 68%
    10:00 +18°C° 0 mm 1 mps 727 mmHg 59%
    11:00 +21°C° 0 mm 1 mps 726 mmHg 56%
    12:00 +23°C° 0 mm 1 mps 726 mmHg 53%
    13:00 +25°C° 0 mm 1 mps 726 mmHg 49%
    14:00 +25°C° 0 mm 1 mps 726 mmHg 50%
    15:00 +25°C° 0 mm 1 mps 725 mmHg 52%
    16:00 +25°C° 0 mm 1 mps 725 mmHg 53%
    17:00 +22°C° 0 mm 1 mps 725 mmHg 64%
    18:00 +20°C° 0 mm 1 mps 725 mmHg 74%
    19:00 +16°C° 0 mm 1 mps 725 mmHg 85%
    20:00 +15°C° 0 mm 1 mps 725 mmHg 87%
    21:00 +15°C° 0 mm 1 mps 725 mmHg 90%
    22:00 +14°C° 0 mm 1 mps 725 mmHg 92%
    23:00 +13°C° 0 mm 0 mps 725 mmHg 92%
    Show more